Regional Weather Roundup
Issued by NWS

Home | Current Version | Previous Version | Text Only | Print | Product List | Glossary Off
Versions: 1 2 3 4 5 6 7 8 9 10 11 12 13 14 15 16 17 18 19 20 21 22 23 24 25 26 27 28 29 30 31 32 33 34 35 36 37 38 39 40 41 42 43 44 45 46 47 48 49 50

000
ASUS43 KMKX 311700
RWRWI

WISCONSIN REGIONAL WEATHER ROUNDUP
NATIONAL WEATHER SERVICE MILWAUKEE/SULLIVAN WI
1200 PM CDT FRI OCT 31 2014

NOTE: "FAIR" INDICATES FEW OR NO CLOUDS BELOW 12,000 FEET WITH NO
SIGNIFICANT WEATHER AND/OR OBSTRUCTIONS TO VISIBILITY.

WIZ001-002-006>008-014>016-023>028-311800-
NORTHWEST WISCONSIN

CITY           SKY/WX    TMP DP  RH WIND       PRES   REMARKS
SUPERIOR ARPT  PTSUNNY   35  21  56 N7        30.58R WCI  29
ASHLAND        PTSUNNY   34  22  61 NE13      30.54S WCI  25
HAYWARD        MOSUNNY   33  20  58 N16G24    30.51S WCI  23
SIREN          MOSUNNY   34  19  53 NE10G17   30.55R WCI  26
CUMBERLAND     CLOUDY    32  19  59 N8G21     30.51R WCI  25
RICE LAKE      CLOUDY    34  20  56 N14G23    30.52S WCI  25
CHETEK         PTSUNNY   35  20  55 N14G23    30.50S WCI  25
LADYSMITH      CLOUDY    35  24  64 N16       30.49R WCI  25
EAU CLAIRE     NOT AVBL
MENOMONIE      MOSUNNY   36  18  46 N17G25    30.50S WCI  26
NEW RICHMOND   SUNNY     35  17  49 N10G18    30.54R WCI  27
OSCEOLA        SUNNY     35  20  55 NE12      30.58R WCI  26
$$

WIZ003>005-009-010-017-018-311800-
NORTH CENTRAL WISCONSIN

CITY           SKY/WX    TMP DP  RH WIND       PRES   REMARKS
MANITOWISH WTR PTSUNNY   30  24  78 N12G17    30.43R WCI  20
ARBOR VITAE    CLOUDY    32  25  74 N17G28    30.42R WCI  21
WOODRUFF       CLOUDY    32  25  74 N17G28    30.42R WCI  21
RHINELANDER    PTSUNNY   29  20  69 N12G26    30.40R WCI  19
EAGLE RIVER    CLOUDY    29  21  71 N17G24    30.40R WCI  17
LAND O LAKES   CLOUDY    30  24  77 N13G20    30.41S WCI  20
PHILLIPS       FLURRIES  30  24  76 N12G17    30.44R WCI  21
TOMAHAWK       PTSUNNY   31  20  64 N15G28    30.42R WCI  20
MEDFORD        PTSUNNY   34  19  56 N20G33    30.41R WCI  22
MERRILL        PTSUNNY   32  21  62 NE16G31   30.40R WCI  21
$$

WIZ029-030-035-036-043>047-311800-
CENTRAL WISCONSIN

CITY           SKY/WX    TMP DP  RH WIND       PRES   REMARKS
WAUSAU         CLOUDY    33  18  53 N12G30    30.39R WCI  24
MOSINEE        PTSUNNY   32  21  64 N21G29    30.40R WCI  20
MARSHFIELD     CLOUDY    35  19  52 N18G25    30.41R WCI  24
STEVENS POINT  CLOUDY    33  20  59 N18G26    30.38R WCI  21
WAUPACA        CLOUDY    37  23  57 N17G28    30.35R WCI  27
WAUTOMA        NOT AVBL
WISC RAPIDS    CLOUDY    37  21  52 N21       30.41R WCI  26
CAMP DOUGLAS   NOT AVBL
$$

WIZ011>013-019>022-031-037>040-048>050-311800-
NORTHEAST WISCONSIN

CITY           SKY/WX    TMP DP  RH WIND       PRES   REMARKS
ANTIGO         CLOUDY    31  21  67 NE21G30   30.36R WCI  18
SHAWANO        CLOUDY    39  23  53 N22G30    30.35R WCI  29
OCONTO         CLOUDY    36  21  54 N22G30    30.32R WCI  24
STURGEON BAY   CLOUDY    36  25  64 N32G39    30.29R WCI  22
GREEN BAY      PTSUNNY   37  22  54 N24G36    30.32R WCI  26
MANITOWOC      NOT AVBL
APPLETON       PTSUNNY   37  19  48 N29G40    30.31R WCI  25
CLINTONVILLE   CLOUDY    36  19  51 NE18G26   30.35R WCI  25
OSHKOSH        CLOUDY    36  21  54 N28G35    30.31R WCI  23
$$

WIZ032>034-041-042-053>061-311800-
SOUTHWEST WISCONSIN

CITY           SKY/WX    TMP DP  RH WIND       PRES   REMARKS
LA CROSSE      CLOUDY    38  20  48 N18G24    30.47S WCI  28
SPARTA         CLOUDY    36  19  49 N16G29    30.45R WCI  26
VIROQUA        CLOUDY    34  22  60 N21G35    30.40R WCI  23
BOSCOBEL       PTSUNNY   39  19  44 N15G28    30.42R WCI  31
PRAIRIE DU CHI PTSUNNY   37  18  47 NW16G26   30.43R WCI  27
PLATTEVILLE    MOSUNNY   39  20  46 N25G33    30.35S WCI  27
$$

WIZ056-057-062-063-064-067-068-311800-
SOUTH CENTRAL WISCONSIN

CITY           SKY/WX    TMP DP  RH WIND       PRES   REMARKS
REEDSBURG      CLOUDY    35  19  52 N21G29    30.37R WCI  24
BARABOO/DELLS  CLOUDY    36  20  51 N18G29    30.36R WCI  26
LONE ROCK      NOT AVBL
MINERAL POINT  MOSUNNY   37  18  44 N21G32    30.33S WCI  27
MADISON        PTSUNNY   36  20  52 N28G39    30.33R WCI  23
MIDDLETON      CLOUDY    37  21  53 N21G26    30.34R WCI  26
WATERTOWN      CLOUDY    35  22  59 N24G32    30.28R WCI  23
MONROE         PTSUNNY   36  23  60 N21G41    30.29R WCI  24
JANESVILLE     PTSUNNY   37  19  48 N29G35    30.27R WCI  25
$$

WIZ051-052-058>065-066-070>072-311800-
SOUTHEAST WISCONSIN

CITY           SKY/WX    TMP DP  RH WIND       PRES   REMARKS
MILWAUKEE      CLOUDY    37  23  56 N26G41    30.21R WCI  25
WAUKESHA       CLOUDY    34  21  60 N22G32    30.25R WCI  22
MILWAUKEE/TIMM CLOUDY    37  21  52 N29G38    30.23R WCI  25
RACINE         LGT RAIN  38  25  59 N28G45    30.20R WCI  26
BURLINGTON     CLOUDY    35  22  59 N21G31    30.22R WCI  23
KENOSHA        CLOUDY    38  24  57 N29G40    30.19R WCI  26
FOND DU LAC    CLOUDY    37  20  50 N26G37    30.31R WCI  25
SHEBOYGAN      MIX PCPN  35  24  64 N20G30    30.25R WCI  24
WEST BEND      CLOUDY    34  23  64 N22G30    30.24R WCI  22
JUNEAU         PTSUNNY   35  21  58 N24G33    30.29R WCI  22
$$

LSZ147-162-311800-
LAKE SUPERIOR

STATION/POSITION TIME  TEMP    WIND        PRES    WAVE
                       AIR SEA DIR/SP/G            HT/PER
                 (UTC) (F)     (DEG/KT/KT) (MB)    (FT/S)
W MID LAKE BUOY  1550   33 43  360/ 17/ 21 1033.9R   7/ 7
DEVILS ISLAND    1600   32      10/ 13/ 15 1035.6R
PORT WING        1640   33      30/ 10/ 17 1034.9R
SAXON HARBOR     1613   36      10/ 17/ 26 1033.2R
$$

LMZ867-665-643>646-311800-
LAKE MICHIGAN

STATION/POSITION TIME  TEMP    WIND        PRES    WAVE
                       AIR SEA DIR/SP/G            HT/PER
                 (UTC) (F)     (DEG/KT/KT) (MB)    (FT/S)
CHAMBERS ISLAND  1600   36     340/ 30/ 36 1025.4R
N MID LAKE BUOY  1550   36 49   10/ 33/ 39 1023.6R   9/ 7
NORTHPORT PIER   1610   36      10/ 29/ 35 1025.7R
KEWAUNEE LAKESHO 1600   35      10/ 19/ 25 1023.5R
SHEBOYGAN LAKESH 1600   37 49   10/ 42/ 46 1023.2R
PORT WASHINGTON  1610   38     350/ 15/ 26 1024.0R
ATWATER BUOY     1600   39      10/ 33     1022.3R
MILWAUKEE LAKESH 1600   38     350/ 25/ 33   N/A
S MID LAKE BUOY  1550   39 51  350/ 39/ 51 1016.6R  22/10
KENOSHA   LAKESH 1600   37     340/ 32/ 39 1020.3R
$$

TC  - TEMPERATURE IN CELSIUS
VSB - VISIBILITY IN STATUTE MILES
WCI - WIND CHILL INDEX
HX  - HEAT INDEX




USA.gov is the U.S. government's official web portal to all federal, state and local government web resources and services.